Powrót do katalogu

SHUTIANYUXING-03

AktywnyNaukaSSO
NORAD 67749·PAYLOAD·🇨🇳 China
Ta nazwa satelity nie została jeszcze potwierdzona przez oficjalne źródła.

Wystrzelony Feb 12, 2026 z South China Sea Launch Area

Loading…

Następne Przeloty (najbliższe 24 godziny)

TLE

ŚwieżeSource: Space-Track

Epoka: Sep 14, 2026, 19:06 UTC

1 67749U 26027D   26257.79647343  .00006996  00000-0  31818-3 0  9999
2 67749  97.5176  25.7398 0008343 271.3615  88.6664 15.21017343 32535

Śledź SHUTIANYUXING-03 w czasie rzeczywistym z AllMySat

Download on the App Store